Location: Bo?a Wola
(50.4192°N, 19.7966°E)
Time: 11:46:23
(UTC+00:00)

Cosmos 2218 Rocket - Pass Details

Date: 15 June 2024
Orbit: 955 x 1006 km, 82.9° (Epoch: 15 July)

Event Time Altitude Azimuth Distance (km) Brightness Sun altitude
Exits shadow 01:04:28 12° 211° (SSW) 2,566 5.5 -9.8°
Maximum altitude 01:10:05 52° 286° (WNW) 1,197 4.4 -9.3°
Drops below altitude 10° 01:16:08 10° 2° (N) 2,709 7.3 -8.7°
Sets 01:18:43 0° 8° (N) 3,655 8.2 -8.5°
